Current weather by "City, St" or "zip code"  
 

Current Conditions: GLEN ULLIN

Clear


NULL F

Last Updated on Sep 28 2022, 03:15 PM MDT
Humidity: %
Wind Speed: mph
Barometer in
Dewpoint: F
Visibility: 10.00 mi
Precip: --
Heat Index: NA
Wind Chill: NA
Current conditions at:

GLEN ULLIN (KD57)

Lat: 46.81 Lon: 101.86

Local Radar Image active severe weather and emergency alerts image image weather storm and storm spotter reports image weather observation monitoring service image
Local
Radar
Active
Alerts
Storm Reports Obs
Monitoring

Sign-up For Email & Text Message Weather Alert Notification Services



Advertise Here

Observation History for GLEN ULLIN


Time Wind
(mph)
Vis
(mi)
Weather Precip (in) Temperature (F) Relative
Humidity
Wind
Chill
(F)
Heat
Index
(F)
Pressure
Air Dwpt altimeter
(in)
sea level
(mb)
Rmks
03:15 PM MDT 10.00 Clear -- NULL % NA NA M
02:55 PM MDT 17.2 G 25.3 10.00 Clear -- 78.8 39.2 24% NA 77.5 30.08 1018.6
02:35 PM MDT 10.00 Clear -- NULL % NA NA M
02:15 PM MDT 20.8 10.00 Clear and Windy -- 77.0 39.2 26% NA 75.6 30.09 1019.0
01:55 PM MDT S 18.3 G 25.3 10.00 Clear -- 77.0 39.2 26% NA 75.6 30.10 1019.3
01:35 PM MDT S 18.3 G 26.4 10.00 Clear -- 77.0 39.2 26% NA 75.6 30.10 1019.3
01:15 PM MDT 18.3 10.00 Clear -- 75.2 39.2 27% NA 73.8 30.12 1019.7
12:55 PM MDT 20.8 G 27.7 10.00 Clear and Windy -- 75.2 39.2 27% NA 73.8 30.12 1020.0
12:35 PM MDT 15.0 G 25.3 10.00 Clear -- 73.4 37.4 27% NA 71.8 30.13 1020.3
12:15 PM MDT G 27.7 10.00 Clear -- NULL % NA NA M
11:55 AM MDT 15.0 10.00 Clear -- 71.6 39.2 31% NA 70.0 30.15 1021.0
11:15 AM MDT G 25.3 10.00 Clear -- NULL % NA NA M
10:55 AM MDT S 18.3 10.00 Clear -- 66.2 37.4 35% NA NA 30.17 1021.7
10:15 AM MDT S 13.9 G 19.7 10.00 Clear -- 64.4 35.6 34% NA NA 30.18 1022.0
09:55 AM MDT 16.1 10.00 Clear -- 60.8 35.6 39% NA NA 30.19 1022.4
09:35 AM MDT 16.1 10.00 Clear -- NULL 35.6 % NA NA 30.19 1022.4
09:15 AM MDT 10.00 Clear -- NULL % NA NA M
08:55 AM MDT S 13.9 10.00 Clear -- 55.4 33.8 44% NA NA 30.19 1022.4
08:35 AM MDT 13.9 10.00 Clear -- 53.6 33.8 47% NA NA 30.19 1022.4
08:15 AM MDT 10.00 Clear -- NULL % NA NA M
07:55 AM MDT 11.4 10.00 Clear -- 50.0 32.0 50% NA NA 30.20 1022.7
07:35 AM MDT SE 8.1 10.00 Clear -- 48.2 32.0 53% 44.6 NA 30.20 1022.7
07:15 AM MDT 10.00 Clear -- NULL % NA NA M
06:55 AM MDT 8.1 10.00 Clear -- 44.6 30.2 57% 40.1 NA 30.21 1023.0

Regional Weather Observation


HAZEN (KHZE)

Clear
NULL F

DICKINSON (KDIK)

Clear
80.1 F

GARRISON (KN60)

NULL
78.1 F

HETTINGER (KHEI)

Clear
82.0 F

MANDAN (KY19)

Clear
NULL F

BISMARCK (KBIS)

Clear and Windy
79.0 F

Advertise Here


Advertise Here